[[{"header":{"parameterUnit":"m.s-1","parameterCategory":1,"la1":30.2991,"la2":30.254,"lo1":-89.0895,"lo2":-89.0444,"dy":0.0017,"dx":0.0017,"nx":28,"ny":28,"refTime":"2024-12-20T03:00:00:Z","depth":0,"parameterNumber":2,"parameterNumberName":"U-component_of_WINDS"},"data":[0,0,0,0,0,0,0,0,0,0,0,0,0,0,0,0,0,0,0,0,0,0,0,0,0,0,0,0,0,0,0,0,0,0,0,0,0,0,0,0,0,0,0,0,0,0,0,0,0,0,0,0,0,0,0,0,0,0,0.5291,0.5291,0,0.5282,0.5282,0.5282,0.5296,0.5296,0.5297,0.5297,0.5285,0.5284,0.5284,0,0,0,0,0,0,0,0,0,0,0,0,0,0.532,0.5319,0.5291,0.5291,0.5291,0.5282,0.5282,0.5282,0.5296,0.5296,0.5297,0.5297,0.5285,0.5285,0.5284,0,0,0,0,0,0,0,0,0,0,0,0,0,0.5309,0.5319,0.5291,0.5297,0.5297,0.5282,0.5282,0.5282,0.5295,0.5296,0.5297,0.5298,0.5286,0.5285,0.5283,0.5261,0,0,0.528,0.5279,0,0,0,0,0,0,0,0,0.5309,0.5308,0.5296,0.5296,0.5297,0.5291,0.5288,0.5275,0.5295,0.5296,0.5297,0.5298,0.5286,0.5285,0.5282,0.5261,0.526,0.528,0.5279,0.5279,0.5278,0,0,0,0,0,0,0,0.531,0.5308,0.5287,0.5296,0.5296,0.53,0.5299,0.5285,0.5287,0.5296,0.5297,0.5296,0.5287,0.5283,0.5281,0.526,0.528,0.5279,0.5278,0.5278,0.5221,0.5221,0,0,0,0,0,0,0.531,0.5309,0.5288,0.5287,0.5305,0.5298,0.5298,0.5292,0.5287,0.5287,0.5295,0.5297,0.5284,0.5283,0.5281,0.5255,0.5279,0.5277,0.5277,0.5222,0.5221,0.522,0,0,0,0,0,0,0.5311,0.5308,0.5288,0.5298,0.5296,0.5297,0.5291,0.5291,0.5287,0.5287,0.5287,0.5291,0.5285,0.5283,0.5266,0.5255,0.5277,0.5276,0.5223,0.5222,0.5221,0.5203,0,0,0,0,0,0,0.5312,0.5309,0.53,0.5298,0.5295,0.5274,0.529,0.5291,0.5286,0.5287,0.5283,0.5283,0.5285,0.5268,0.5265,0.5254,0.5275,0.5224,0.5223,0.5221,0.5204,0.5201,0.5198,0,0,0,0,0,0.5313,0.5295,0.53,0.5297,0.5285,0.5273,0.5272,0.5276,0.5285,0.5276,0.5276,0.5283,0.5257,0.5266,0.5263,0.5251,0.5225,0.5223,0.5221,0.5206,0.5202,0.5199,0,0,0,0,0,0,0.5294,0.5294,0.53,0.5281,0.5277,0.5276,0.5265,0.5271,0.5264,0.5266,0.527,0.5269,0.5252,0.525,0.5261,0.523,0.5242,0.524,0.5232,0.5228,0.5225,0.5225,0.5274,0,0,0,0,0,0.5288,0.5279,0.528,0.5263,0.5261,0.5263,0.5258,0.5262,0.5258,0.5256,0.5254,0.525,0.5241,0.5234,0.5226,0.5205,0.5204,0.5195,0.5192,0.519,0.5187,0.5177,0.5173,0.5215,0.5215,0.5215,0,0,0.5275,0.5274,0.5268,0.5259,0.5256,0.5247,0.5262,0.525,0.5243,0.5254,0.5239,0.5238,0.5233,0.5214,0.5206,0.5212,0.5176,0.5187,0.5185,0.5184,0.5174,0.517,0.5167,0.5213,0.5214,0.5214,0,0,0.5246,0.5244,0.5231,0.5228,0.5225,0.5227,0.5224,0.5222,0.5222,0.5207,0.5215,0.5207,0.5191,0.5187,0.5183,0.5155,0.5161,0.5152,0.5136,0.5126,0.5122,0.512,0.511,0.5106,0.515,0.515,0.515,0,0.523,0.5216,0.5222,0.5211,0.5207,0.5218,0.5204,0.5201,0.5195,0.5192,0.5199,0.518,0.5178,0.5159,0.5152,0.5149,0.5145,0.5152,0.5123,0.512,0.5117,0.5108,0.5104,0.5149,0.5149,0.5149,0.5149,0,0.5196,0.5187,0.5176,0.5171,0.5166,0.5153,0.5157,0.5151,0.5156,0.5157,0.5143,0.514,0.5132,0.5128,0.5132,0.511,0.5114,0.5122,0.5134,0.5112,0.5103,0.51,0.5147,0.5148,0.5148,0.5148,0,0,0.5153,0.5154,0.515,0.5148,0.5146,0.5138,0.5126,0.512,0.5114,0.511,0.51,0.5088,0.5095,0.5091,0.5095,0.5086,0.5064,0.5095,0.5095,0.5089,0.504,0.5034,0.503,0.5069,0.5068,0.5068,0.5041,0,0.5125,0.5105,0.5111,0.5091,0.5082,0.5094,0.5084,0.5081,0.5083,0.5075,0.5077,0.5068,0.5079,0.5076,0.5068,0.5069,0.5054,0.5071,0.5059,0.5059,0.5059,0.5025,0.5018,0.4993,0.5037,0.5037,0.5036,0,0.5088,0.5084,0.5063,0.5064,0.506,0.5051,0.5046,0.5039,0.5036,0.5038,0.5034,0.5041,0.5029,0.5042,0.5027,0.5038,0.5034,0.5033,0.5033,0.5031,0.5046,0.5022,0.4985,0.4981,0.5031,0.5031,0.5032,0,0.5059,0.5048,0.5034,0.5032,0.5033,0.5026,0.5026,0.5025,0.5021,0.5016,0.5013,0.5007,0.5004,0.4999,0.5003,0.5013,0.4987,0.5,0.4988,0.4987,0.4981,0.4981,0.4942,0.4979,0.4979,0.4979,0.4979,0,0.5025,0.5012,0.5021,0.5013,0.4999,0.5007,0.4992,0.4993,0.4992,0.4984,0.4994,0.4986,0.4993,0.4985,0.4989,0.4975,0.4974,0.4975,0.4976,0.4973,0.4973,0.497,0.4972,0.4978,0.4978,0.4979,0.4979,0,0.499,0.4996,0.4982,0.4984,0.4984,0.4974,0.4976,0.4968,0.4971,0.4961,0.4959,0.4963,0.4955,0.4959,0.4951,0.4953,0.4936,0.494,0.4937,0.4938,0.4925,0.4926,0.4881,0.4876,0.4917,0.4917,0.4917,0,0.4968,0.4958,0.496,0.4956,0.4956,0.4948,0.4945,0.4953,0.4948,0.4946,0.4939,0.4932,0.4927,0.4914,0.4916,0.491,0.4913,0.4898,0.4912,0.4911,0.4913,0.4913,0.4912,0.4895,0.4894,0.4894,0.4894,0,0.4928,0.4932,0.4927,0.4923,0.4919,0.4916,0.4913,0.4909,0.4917,0.4912,0.4905,0.4901,0.4893,0.4886,0.4882,0.4881,0.4889,0.489,0.4886,0.4883,0.4882,0.4883,0.4929,0.489,0.489,0.4891,0.4891,0.4891,0.4899,0.4891,0.4892,0.4886,0.4885,0.4884,0.4877,0.488,0.4874,0.4869,0.4874,0.4865,0.4865,0.4859,0.4858,0.4851,0.4857,0.4852,0.4851,0.485,0.4848,0.4884,0.485,0.485,0.4851,0.4851,0.4851,0,0.486,0.4861,0.4856,0.4853,0.4849,0.4858,0.4856,0.4851,0.4844,0.4843,0.4839,0.4831,0.4825,0.4827,0.4822,0.4816,0.4819,0.4814,0.4815,0.4814,0.4843,0.4846,0.4812,0.4812,0.4812,0.4812,0.4812,0.4812,0.4839,0.4827,0.4831,0.4819,0.482,0.4812,0.4811,0.4809,0.4809,0.48,0.4795,0.4798,0.4798,0.4793,0.4788,0.4789,0.4787,0.478,0.4782,0.4809,0.4812,0.4816,0.4819,0.478,0.478,0.4755,0.4754,0.4754]},{"header":{"parameterUnit":"m.s-1","parameterCategory":1,"la1":30.2991,"la2":30.254,"lo1":-89.0895,"lo2":-89.0444,"dy":0.0017,"dx":0.0017,"nx":28,"ny":28,"refTime":"2024-12-20T03:00:00:Z","depth":0,"parameterNumber":3,"parameterNumberName":"V-component_of_WINDS"},"data":[0,0,0,0,0,0,0,0,0,0,0,0,0,0,0,0,0,0,0,0,0,0,0,0,0,0,0,0,0,0,0,0,0,0,0,0,0,0,0,0,0,0,0,0,0,0,0,0,0,0,0,0,0,0,0,0,0,0,-3.0993,-3.0994,0,-3.1091,-3.1092,-3.1093,-3.1064,-3.1062,-3.106,-3.1058,-3.1156,-3.116,-3.1165,0,0,0,0,0,0,0,0,0,0,0,0,0,-3.078,-3.0784,-3.0993,-3.0995,-3.0996,-3.1091,-3.1092,-3.1094,-3.1065,-3.1062,-3.106,-3.1058,-3.1154,-3.116,-3.1165,0,0,0,0,0,0,0,0,0,0,0,0,0,-3.0874,-3.0785,-3.0993,-3.0993,-3.0994,-3.1091,-3.1092,-3.1094,-3.1065,-3.1062,-3.1059,-3.1056,-3.1153,-3.1159,-3.1166,-3.1268,0,0,-3.1186,-3.1189,0,0,0,0,0,0,0,0,-3.0869,-3.0882,-3.0992,-3.0993,-3.0994,-3.1063,-3.1053,-3.1152,-3.1066,-3.1038,-3.1058,-3.1055,-3.1127,-3.1136,-3.1161,-3.1273,-3.1277,-3.1187,-3.1191,-3.1194,-3.1196,0,0,0,0,0,0,0,-3.0862,-3.0878,-3.1032,-3.0993,-3.0995,-3.0987,-3.0997,-3.1071,-3.1098,-3.104,-3.1038,-3.1051,-3.1127,-3.1154,-3.1163,-3.1278,-3.1187,-3.1193,-3.1197,-3.12,-3.1479,-3.1482,0,0,0,0,0,0,-3.0855,-3.0873,-3.1029,-3.1035,-3.0923,-3.0994,-3.1005,-3.1044,-3.1097,-3.1103,-3.1053,-3.1049,-3.1144,-3.1155,-3.1166,-3.1289,-3.1194,-3.12,-3.1204,-3.1476,-3.148,-3.1483,0,0,0,0,0,0,-3.0851,-3.087,-3.1025,-3.0953,-3.0972,-3.1001,-3.1044,-3.1047,-3.1074,-3.1107,-3.1112,-3.1076,-3.1142,-3.1157,-3.1243,-3.1292,-3.1203,-3.1209,-3.1472,-3.1477,-3.1482,-3.1537,0,0,0,0,0,0,-3.0845,-3.0868,-3.0908,-3.0954,-3.0976,-3.1101,-3.1047,-3.1051,-3.1086,-3.1082,-3.113,-3.1135,-3.1141,-3.1233,-3.125,-3.13,-3.1215,-3.1467,-3.1474,-3.148,-3.153,-3.1543,-3.1554,0,0,0,0,0,-3.0837,-3.0919,-3.091,-3.0929,-3.1027,-3.1104,-3.1116,-3.1123,-3.109,-3.113,-3.1151,-3.1133,-3.1284,-3.1242,-3.1261,-3.1314,-3.1464,-3.1472,-3.1479,-3.1525,-3.154,-3.1553,0,0,0,0,0,0,-3.0876,-3.0925,-3.0915,-3.1014,-3.1056,-3.1099,-3.1149,-3.1139,-3.1189,-3.1182,-3.1187,-3.1199,-3.1287,-3.1309,-3.1261,-3.1415,-3.1369,-3.1381,-3.1398,-3.1413,-3.1424,-3.1417,-3.122,0,0,0,0,0,-3.0896,-3.0956,-3.0995,-3.1078,-3.1099,-3.1121,-3.1155,-3.1156,-3.1199,-3.1215,-3.1243,-3.1284,-3.1341,-3.1378,-3.1432,-3.1534,-3.1544,-3.1579,-3.1591,-3.16,-3.161,-3.1665,-3.1682,-3.1508,-3.1508,-3.1508,0,0,-3.0938,-3.0972,-3.1009,-3.1087,-3.1119,-3.118,-3.1136,-3.1202,-3.1247,-3.1225,-3.1309,-3.1331,-3.1377,-3.1471,-3.1514,-3.1492,-3.166,-3.161,-3.1617,-3.1622,-3.1675,-3.1691,-3.1706,-3.1514,-3.1513,-3.1512,0,0,-3.1045,-3.1078,-3.1151,-3.1184,-3.1233,-3.1247,-3.1265,-3.131,-3.1324,-3.1409,-3.1394,-3.1447,-3.1545,-3.1578,-3.1608,-3.1729,-3.1715,-3.1747,-3.1807,-3.1861,-3.1875,-3.1887,-3.193,-3.1945,-3.1757,-3.1757,-3.1757,0,-3.1091,-3.1183,-3.1189,-3.1258,-3.1292,-3.1276,-3.135,-3.1382,-3.1446,-3.147,-3.1444,-3.1567,-3.1597,-3.1699,-3.1729,-3.1754,-3.1774,-3.1741,-3.1872,-3.1884,-3.1896,-3.1937,-3.1953,-3.176,-3.176,-3.176,-3.1759,0,-3.1237,-3.1301,-3.1354,-3.1417,-3.1458,-3.1529,-3.1545,-3.1585,-3.1584,-3.16,-3.1686,-3.1722,-3.1783,-3.1807,-3.1805,-3.191,-3.1894,-3.1871,-3.1824,-3.1916,-3.1955,-3.197,-3.1765,-3.1764,-3.1763,-3.1762,0,0,-3.1371,-3.1437,-3.1457,-3.1486,-3.1539,-3.1588,-3.1658,-3.1719,-3.1753,-3.1798,-3.1857,-3.194,-3.1919,-3.1953,-3.1955,-3.2002,-3.2096,-3.1973,-3.1974,-3.1994,-3.2213,-3.223,-3.2249,-3.2087,-3.209,-3.2093,-3.2209,0,-3.1483,-3.1606,-3.1614,-3.1726,-3.1785,-3.1772,-3.1832,-3.1872,-3.1889,-3.1941,-3.196,-3.2019,-3.1987,-3.2007,-3.2054,-3.2075,-3.214,-3.2067,-3.2141,-3.2143,-3.213,-3.2269,-3.2287,-3.2396,-3.2224,-3.2227,-3.2229,0,-3.163,-3.168,-3.1798,-3.1844,-3.1869,-3.1924,-3.198,-3.203,-3.2074,-3.2084,-3.2122,-3.2118,-3.2189,-3.2141,-3.2239,-3.2189,-3.222,-3.2235,-3.2239,-3.2246,-3.2191,-3.2279,-3.243,-3.2447,-3.2253,-3.2251,-3.2249,0,-3.1716,-3.1813,-3.1896,-3.1921,-3.1976,-3.2015,-3.204,-3.2081,-3.2117,-3.2167,-3.219,-3.2247,-3.2277,-3.2321,-3.2332,-3.2296,-3.243,-3.2382,-3.2439,-3.2439,-3.2468,-3.2466,-3.2626,-3.2488,-3.2488,-3.2487,-3.2487,0,-3.184,-3.1912,-3.1935,-3.1987,-3.2067,-3.2076,-3.2155,-3.2178,-3.2215,-3.2269,-3.2261,-3.2312,-3.2324,-3.2377,-3.2386,-3.2466,-3.248,-3.2489,-3.2491,-3.249,-3.2489,-3.251,-3.2503,-3.2492,-3.2491,-3.249,-3.2489,0,-3.1949,-3.1967,-3.2057,-3.2103,-3.2116,-3.2173,-3.2212,-3.2261,-3.2278,-3.2347,-3.2364,-3.239,-3.2453,-3.2468,-3.2543,-3.2549,-3.2643,-3.2637,-3.2628,-3.2628,-3.2684,-3.2678,-3.2863,-3.2887,-3.2734,-3.2735,-3.2736,0,-3.2027,-3.2082,-3.2134,-3.2171,-3.2198,-3.2257,-3.2294,-3.2304,-3.2343,-3.2398,-3.244,-3.2502,-3.2552,-3.2653,-3.2678,-3.2735,-3.2731,-3.2792,-3.2739,-3.2737,-3.2732,-3.2728,-3.2734,-3.2801,-3.2803,-3.2804,-3.2805,0,-3.2163,-3.217,-3.2224,-3.2282,-3.2327,-3.2373,-3.2417,-3.2447,-3.2463,-3.2507,-3.2572,-3.2611,-3.2688,-3.2749,-3.2807,-3.2832,-3.2822,-3.2822,-3.2838,-3.2838,-3.283,-3.2835,-3.2655,-3.2817,-3.2816,-3.2815,-3.2815,-3.2814,-3.2259,-3.2308,-3.2352,-3.2413,-3.2448,-3.2489,-3.2537,-3.256,-3.2615,-3.2679,-3.2681,-3.2752,-3.2795,-3.2871,-3.2899,-3.2954,-3.2935,-3.2959,-3.2965,-3.297,-3.2975,-3.2822,-3.2965,-3.2964,-3.2964,-3.2964,-3.2963,0,-3.2395,-3.2423,-3.2479,-3.2541,-3.2589,-3.2576,-3.2624,-3.2665,-3.2727,-3.2768,-3.2818,-3.2893,-3.2953,-3.2983,-3.3042,-3.308,-3.3077,-3.3095,-3.3092,-3.3098,-3.2988,-3.2969,-3.3097,-3.3097,-3.3097,-3.3097,-3.3097,-3.3097,-3.2471,-3.2553,-3.2565,-3.2665,-3.2692,-3.2762,-3.279,-3.2828,-3.2861,-3.2945,-3.2995,-3.3015,-3.3051,-3.3113,-3.3168,-3.3175,-3.3197,-3.3218,-3.3223,-3.312,-3.3106,-3.3093,-3.3074,-3.3223,-3.3223,-3.3328,-3.3329,-3.333]}]]